Snowfall_Accumulation
0.0 0.0 0.0 0.0 0.0 0.0 0.0 0.7 0.5 1.2 0.0 0.0 0.0 0.0 0.0 0.0 0.0 0.0 0.0 0.0 0.0 0.0 0.0 0.0 0.0 0.0 0.0 0.0 0.0 0.0 0.0 0.0 0.0 0.0 0.0 0.0 0.0 0.0
0.0 0.0 0.0 0.0 0.0 0.0 0.0 0.7 0.4 0.0 1.9 0.0 0.0 0.0 0.0 0.0 0.0 0.0 0.0 0.0 0.0 0.0 0.0 0.0 0.0 0.0 0.0 0.0 0.0 0.0 0.0 0.0 0.0 0.0 0.0 0.0 0.0 0.0
0.0 0.0 0.0 0.0 0.0 0.0 0.0 0.0 0.9 0.4 1.3 0.2 0.1 0.5 0.3 0.0 0.0 0.0 0.0 0.0 0.0 0.0 0.0 0.0 0.0 0.0 0.0 0.0 0.0 0.0 0.0 0.0 0.0 0.0 0.0 0.0 0.0 0.0
0.0 0.0 0.0 0.0 0.0 0.0 0.0 0.3 0.9 0.4 0.8 0.9 0.6 0.3 0.1 0.0 0.0 0.0 0.0 0.1 0.0 0.0 0.0 0.0 0.0 0.0 0.0 0.0 0.0 0.0 0.0 0.0 0.0 0.0 0.0 0.0 0.0 0.0
0.0 0.0 0.0 0.0 0.0 0.0 0.9 0.6 0.2 0.7 0.9 1.8 0.2 0.0 0.0 0.6 0.0 0.0 0.0 0.0 0.0 0.0 0.0 0.0 0.0 0.0 0.0 0.0 0.0 0.0 0.0 0.0 0.0 0.0 0.0 0.0 0.0 0.0
0.0 0.0 0.0 0.3 0.2 0.6 0.4 0.6 0.3 0.5 0.5 1.1 1.6 1.3 0.3 0.0 0.2 0.0 0.0 0.0 0.0 0.0 0.0 0.0 0.0 0.0 0.0 0.0 0.0 0.0 0.0 0.0 0.0 0.0 0.0 0.0 0.0 0.0
0.0 1.6 1.3 1.0 0.5 0.7 0.5 0.2 0.2 0.1 1.5 3.7 3.8 3.8 1.2 0.9 0.0 0.0 0.0 0.0 0.2 0.0 0.0 0.0 0.0 0.0 0.0 0.0 0.0 0.0 0.0 0.0 0.0 0.0 0.0 0.0 0.0 0.0
2.3 2.2 1.1 0.4 0.2 0.0 0.0 0.0 0.0 0.5 3.2 5.0 4.4 2.7 1.0 1.3 0.0 0.5 2.9 2.2 2.7 0.0 0.0 0.1 0.0 0.0 0.0 0.0 0.0 0.0 0.0 0.0 0.0 0.0 0.0 0.0 0.0 0.0
1.3 0.8 0.7 0.1 0.2 0.1 0.0 0.0 0.3 0.3 0.5 0.4 0.8 1.6 1.3 0.2 3.1 4.3 2.8 3.3 2.9 0.0 0.2 0.5 0.0 0.0 0.0 0.0 0.0 0.0 0.0 0.0 0.0 0.0 0.0 0.0 0.0 0.0
0.3 0.1 0.0 0.0 0.0 0.1 0.1 1.9 1.0 0.0 0.0 0.0 0.1 0.4 0.8 0.3 1.6 0.9 1.5 3.0 0.9 0.0 0.1 3.5 0.0 0.1 0.0 0.0 0.0 0.0 0.0 0.0 0.0 0.0 0.0 0.0 0.0 0.0
0.1 0.0 0.1 0.1 0.0 0.0 1.3 1.6 0.2 0.1 0.0 0.0 0.2 0.1 0.0 0.0 0.0 2.7 5.2 8.3 7.3 1.2 0.0 1.3 0.4 0.2 0.0 0.0 0.0 0.0 0.0 0.0 0.0 0.0 0.0 0.0 0.0 0.0
0.0 0.1 0.0 0.2 0.1 0.4 0.6 0.5 1.2 0.2 1.1 0.8 0.1 0.0 0.0 0.0 0.0 0.2 5.9 20.1 10.4 6.2 0.0 5.1 1.5 1.8 7.2 0.0 0.1 0.0 0.0 0.0 0.0 0.0 0.0 0.1 0.1 0.4
0.6 0.0 0.0 0.1 0.7 0.1 0.1 0.5 0.5 0.2 0.2 0.2 0.0 0.1 0.1 0.2 0.1 0.1 2.2 13.1 20.9 16.2 0.0 12.5 15.4 2.9 10.4 4.3 2.5 2.5 1.7 1.1 1.5 2.0 1.9 1.2 0.9 1.0
0.9 0.2 0.1 0.9 0.0 0.1 0.2 0.2 0.2 0.3 0.3 0.7 0.4 0.3 0.3 0.5 0.3 0.8 1.2 3.6 5.3 13.5 5.9 8.2 29.5 12.4 15.9 11.6 5.6 5.9 4.4 5.3 7.5 8.0 9.3 2.5 1.0 0.6
1.6 1.0 0.9 0.2 0.1 0.1 0.1 0.2 0.3 0.2 1.0 3.5 1.9 0.7 0.2 0.1 0.5 1.0 1.1 2.5 4.2 6.0 6.9 8.0 13.0 13.5 18.1 18.4 9.8 5.5 7.7 6.9 6.5 7.7 6.5 6.5 5.1 3.2
1.7 2.2 0.8 0.5 0.4 0.4 0.7 0.6 0.3 0.6 1.9 3.8 3.0 0.7 0.2 0.6 1.1 1.9 6.2 5.8 10.7 6.9 7.6 6.5 9.3 12.7 14.9 7.9 9.4 8.5 7.4 12.1 8.5 7.3 5.9 6.8 2.0 1.4
3.2 2.8 2.6 2.1 1.6 1.5 1.1 0.6 0.5 0.4 2.6 1.7 2.7 2.6 0.9 1.0 2.9 3.5 6.9 11.4 18.5 11.5 12.6 8.7 7.2 5.5 5.9 7.3 10.2 6.6 7.6 7.9 9.4 8.4 6.3 9.0 5.4 1.1
7.1 9.6 5.6 3.2 2.4 1.8 2.1 1.9 1.2 0.6 2.0 3.2 3.8 2.6 6.4 6.0 7.7 8.2 10.8 14.7 17.1 14.2 15.1 11.5 10.6 11.7 9.1 6.9 6.1 11.6 9.6 10.8 10.5 7.8 6.1 8.8 8.5 3.8
9.5 7.6 5.2 3.2 2.3 1.4 1.7 2.4 2.5 1.2 2.5 4.5 5.7 6.9 9.5 8.1 8.4 10.2 10.9 12.6 14.8 12.2 12.5 8.5 11.7 17.9 23.7 11.5 6.2 5.5 17.3 13.3 9.6 9.0 5.5 5.7 8.6 6.6
5.6 5.1 3.7 3.1 2.4 2.7 2.6 4.3 4.0 2.4 4.3 5.2 8.2 8.4 11.0 13.6 12.1 11.3 10.5 14.2 14.7 11.0 9.5 7.6 6.6 13.9 29.9 23.0 15.8 9.2 6.8 11.7 11.3 11.9 9.4 6.5 5.3 1.6
4.0 3.5 2.3 2.4 3.1 3.3 4.3 5.5 5.2 8.6 10.7 12.7 10.6 11.9 11.1 16.0 13.3 9.0 10.7 8.4 8.9 10.1 11.5 5.3 4.1 2.9 10.6 13.9 15.5 6.7 7.3 4.5 4.0 9.6 9.4 11.2 7.2 4.5
3.5 3.8 2.7 2.8 4.6 6.2 8.9 8.3 10.5 8.9 10.9 11.3 10.8 11.5 12.1 14.4 16.3 12.0 9.4 11.3 7.9 7.8 8.7 4.8 6.3 8.7 11.7 15.2 9.7 5.2 4.5 4.6 3.5 2.2 2.2 4.3 14.3 20.3
5.0 5.3 5.8 5.1 6.2 7.7 9.9 10.9 10.9 9.9 9.9 12.6 13.7 13.2 12.9 14.7 8.8 8.7 10.0 9.6 11.1 13.8 10.6 11.2 8.2 7.9 9.8 10.7 8.9 7.9 5.0 4.1 4.7 4.9 5.3 1.9 1.3 1.5